Location: Castelnau
(43.6639°N, 0.8431°W)
Time: 17:13:34
(UTC+00:00)

CZ-4C R/B - Pass Details

Date: 13 January 2026
Orbit: 483 x 1496 km, 63.4° (Epoch: 10 February)

Event Time Altitude Azimuth Distance (km) Brightness Sun altitude
Exits shadow 05:20:05 11° 349° (N) 2,525 4.5 -23.8°
Maximum altitude 05:21:36 11° 4° (N) 2,548 4.6 -23.5°
Drops below altitude 10° 05:23:39 10° 23° (NNE) 2,774 5.0 -23.2°
Sets 05:29:01 0° 54° (NE) 4,029 6.4 -22.2°
